PTR2532 CYSB-CYTZ

Flight info

Callsign PTR2532
Flight time N/A
Altitude 23000
Route ILUSI DCT MURUM ILIXU1
Aircraft DH8D/M-SDE2E3FGRY/H

Departure

Time 2026-04-28 14:56
Airport Sudbury Airport (CYSB)

Arrival

Time N/A
Airport Billy Bishop Toronto City Airport (CYTZ)
Time Latitude Longitude Altitude Speed Heading
2026-04-28 14:46 46.62352 -80.79584 1152 ft 0 kts 137°
2026-04-28 14:51 46.62353 -80.79587 1152 ft 2 kts 137°
2026-04-28 14:51 46.62365 -80.79601 1152 ft 2 kts 138°
2026-04-28 14:51 46.62376 -80.79616 1152 ft 2 kts 137°
2026-04-28 14:51 46.62386 -80.79630 1152 ft 1 kts 138°
2026-04-28 14:52 46.62387 -80.79631 1152 ft 0 kts 138°
2026-04-28 14:53 46.62386 -80.79624 1152 ft 4 kts 102°
2026-04-28 14:53 46.62471 -80.79559 1151 ft 26 kts 27°
2026-04-28 14:53 46.62647 -80.79421 1152 ft 27 kts 28°
2026-04-28 14:54 46.62732 -80.79355 1153 ft 0 kts 30°
2026-04-28 14:54 46.62707 -80.79372 1153 ft 7 kts 15°
2026-04-28 14:54 46.62683 -80.79380 1153 ft 3 kts 324°
2026-04-28 14:54 46.62666 -80.79472 1153 ft 16 kts 307°
2026-04-28 14:55 46.62741 -80.79658 1153 ft 25 kts 348°
2026-04-28 14:55 46.62961 -80.79505 1153 ft 40 kts 30°
2026-04-28 14:55 46.63196 -80.79313 1153 ft 36 kts 26°
2026-04-28 14:55 46.63332 -80.79224 1150 ft 15 kts 121°
2026-04-28 14:56 46.63245 -80.79268 1152 ft 24 kts 209°
2026-04-28 14:56 46.62826 -80.79622 1154 ft 111 kts 208°
2026-04-28 14:56 46.62014 -80.80336 1325 ft 148 kts 207°
2026-04-28 14:56 46.61205 -80.81154 2175 ft 139 kts 210°
2026-04-28 14:57 46.60416 -80.81794 2960 ft 129 kts 182°
2026-04-28 14:57 46.59864 -80.81600 3485 ft 128 kts 162°
2026-04-28 14:57 46.58682 -80.80806 3863 ft 161 kts 162°
2026-04-28 14:57 46.57615 -80.80053 4018 ft 185 kts 160°
2026-04-28 14:58 46.56436 -80.79151 4324 ft 198 kts 159°
2026-04-28 14:58 46.55202 -80.78197 4776 ft 204 kts 160°
2026-04-28 14:58 46.53925 -80.77166 5249 ft 211 kts 159°
2026-04-28 14:58 46.52650 -80.76146 5772 ft 213 kts 160°
2026-04-28 14:59 46.51348 -80.75101 6205 ft 218 kts 159°